STARLINK-30519, 57985

Orbit data source: Space-Track

STARLINK-30519, 57985 is a payload satellite owned by SpaceX/Seattle (US) in LEO that was launched on Sat, 30 Sep 2023 UTC via an FALCON 9 launch vehicle from the Air Force Eastern Test Range (AFETR). Payload-class satellites include a variety of spacecraft equipped with specific instruments for various scientific and technological missions. These include communications satellites like Starlink; space stations such as the ISS; scientific satellites like the Hubble; Earth observation satellites from companies like Planet Labs, Umbra, and HawkEye 360; GPS; miniature CubeSats for education and research; and military/defense satellites.

Loading next visibility...
Identifier
57985, 2023-151X
Orbit
LEO
Country
Flag of USUS
Related business
Manufacturer
SpaceX/Seattle
Mission
Operational Commercial Communications
Bus & Motor
STARLINK V2M, Unknown motor
Mass
730 kg wet, ~700 kg dry
Launch date (UTC)
2023-09-30 (3 years ago)
Launch vehicle
FALCON 9
Launch site
Air Force Eastern Test Range (AFETR)
Object type
Payload
Rocket body
Debris
Shape & HBR
Box + 2 Pan, 17.7 m
Radar Cross Section
33.884 m², Large (>1 m²)

Expand to show TLE details & history
Last TLE update: 11 hours ago

TLE from 11 hours ago
0 STARLINK-30519
1 57985U 23151X   26130.03813655 -.00000474  00000-0 -77097-5 0  9991
2 57985  43.0081   4.4033 0001432 250.1569 109.9129 15.27574990144913
Epoch: 2026-05-10T00:54Z
TLE epoch observation values (Epoch: 2026-05-10T00:54:54.997Z)
Latitude
-0°
Longitude
122.82719°
Altitude
483.175 km
Speed
7.625 km/s
True Right ascension
00h 17m 36s
True Declination
0° 00' 00"
Sunlit
Object was in daylight at epoch
Visualization orbit readout
Latitude
Unknown
Longitude
Unknown
Altitude
Unknown
Speed
Unknown
Apparent Right ascension
Unknown
Apparent Declination
Unknown
Sunlit
N/A
Visualization observer readout
Local Sidereal Time
19:50:57
Azimuth
Unknown
Elevation
Unknown
Doppler factor
Unknown
Orbital elements
Apogee altitude
485.991 km
Perigee altitude
484.025 km
Semi-major axis
6,863.145 km
Eccentricity
0.00014
Inclination
43.0081°
RAAN
4.4033°
Arg. of periapsis
250.1569°
True anomaly
109.92833°
Mean anomaly
109.9129°
Eccentric anomaly
109.92061°
Mean motion
3.81732 °/min
Orbital period
94.31 mins
BSTAR
-0.0000077097
Loading maneuver chart data...
Computing Atmospheric mass density...
Loading historical data...
Loading historical data...
Loading historical data...
Loading historical data...
Loading historical data...
Loading historical data...
Loading historical data...

Documentation

Showing up to 5 results
|